Location: Oshawa
(43.9000°N, 78.8670°W)
Time: 11:15:45
(UTC-04:00)

ITAMSAT 1 - Visible Passes

Search period start: 29 March 2017 00:00
Search period end: 08 April 2017 00:00
Orbit: 784 x 797 km, 98.8° (Epoch: 27 March)

Date Brightness Start Highest point End Pass type
(mag) Time Alt. Az. Time Alt. Az. Time Alt. Az.
29 Mar 7.8 04:37:06 10° NNE 04:42:18 72° ESE 04:44:00 43° S visible
29 Mar 9.3 06:17:55 10° NNW 06:21:11 17° WNW 06:24:26 10° W visible
30 Mar 8.8 04:07:59 10° NNE 04:12:51 39° E 04:14:26 31° SE visible
30 Mar 8.6 05:47:44 10° N 05:52:10 29° WNW 05:55:10 17° WSW visible
31 Mar 9.6 03:39:20 10° NE 03:43:16 21° E 03:44:51 19° ESE visible
31 Mar 7.9 05:17:59 10° N 05:23:01 51° WNW 05:25:36 27° SW visible
01 Apr 10.3 03:12:04 10° ENE 03:13:33 11° E 03:15:01 10° ESE visible
01 Apr 7.6 04:48:30 10° NNE 04:53:44 89° ESE 04:56:01 35° SSW visible
02 Apr 8.4 04:19:18 10° NNE 04:24:20 49° E 04:26:26 31° SSE visible
02 Apr 8.9 05:59:25 10° N 06:03:28 24° WNW 06:07:11 11° WSW visible
03 Apr 9.4 03:50:26 10° NE 03:54:47 27° E 03:56:51 21° SE visible
03 Apr 8.2 05:29:31 10° N 05:34:22 41° WNW 05:37:35 19° SW visible
04 Apr 10.1 03:22:20 10° ENE 03:25:07 14° E 03:27:16 12° ESE visible
04 Apr 7.6 04:59:57 10° N 05:05:08 74° WNW 05:08:01 27° SSW visible
05 Apr 8.0 04:30:37 10° NNE 04:35:47 62° ESE 04:38:26 28° S visible
05 Apr 9.1 06:11:09 10° NNW 06:14:46 19° WNW 06:18:22 10° WSW visible
06 Apr 9.1 04:01:36 10° NNE 04:06:17 33° E 04:08:51 22° SE visible
06 Apr 8.4 05:41:07 10° N 05:45:43 33° WNW 05:49:35 13° SW visible
07 Apr 9.9 03:33:07 10° NE 03:36:41 18° E 03:39:15 13° SE visible
07 Apr 7.7 05:11:25 10° N 05:16:32 59° WNW 05:20:00 20° SW visible
